Terminal Aerodrome Forecast
Issued by NWS Pueblo, CO

Home | Current Version | Previous Version | Text Only | Print | Product List | Glossary On
Versions: 1 2 3 4 5 6 7 8 9 10 11 12 13 14 15 16 17 18 19 20 21 22 23 24 25 26 27 28 29 30 31 32 33 34
000
FTUS45 KPUB 201123
TAFCOS
TAF
KCOS 201123Z 2012/2112 02007KT P6SM SCT140 BKN200
     FM201600 16008KT P6SM SCT120 SCT200
     FM201900 18012KT P6SM VCTS SCT080CB BKN140
     FM210200 35010KT P6SM VCTS SCT080CB BKN200
     FM210800 35008KT P6SM FEW120 SCT200=

USA.gov is the U.S. government's official web portal to all federal, state and local government web resources and services.